Back to catalog

STARLINK-31838

AliveCommunicationsVLEO
NORAD 60130·PAYLOAD·🇺🇸 United States

Launched Jun 24, 2024 from Vandenberg Space Force Base

Loading…

Next Passes (next 24 hours)

TLE

FreshSource: CelesTrak SupGP

Epoch: Sep 14, 2026, 22:24 UTC

1 60130C 24118T   26257.93381944  .00018276  00000+0  58731-3 0  2576
2 60130  53.1575 226.2816 0001441 100.0844 146.2296 15.31714507    17

Track STARLINK-31838 in real time with AllMySat

Download on the App Store